Kosmos-90

operational
NORAD ID: 1588 Int'l Des: 1965-073 Owner: OKB10 Country: SU
LEO

Kosmos-90について

説明を読み込み中...

リアルタイム位置

3D地球を読み込み中...

次回通過

高度履歴

Altitude vs Time

uPlot chart will show altitude changes over time

軌道要素

1 1588U 65073E 26062.36246943 -.00000108 00000-0 -13000-3 0 9994
2 1588 56.0559 189.6399 0153400 300.5559 90.8056 12.34591546725922
Epoch: Mar 3, 2026 • Age: 29 hours

現在のステータス

高度 1649.2 km
速度 7.00 km/s
衛星直下点 34.53°N, 107.45°E
タイプ other

大規模コンステレーション

Loading constellations...